San Francisco, CA

6:55 PM PDT on May 25, 2017 (GMT -0700)
San Francisco International

Weather History for KSFO - June, 2014

Change the Weather History Date:

Sunday, June 8, 2014

  Actual Average Record
Temperature  
Mean Temperature 71 °F 62 °F  
Max Temperature 87 °F 70 °F 98 °F (1973)
Min Temperature 55 °F 53 °F 47 °F (1982)
Degree Days  
Heating Degree Days 0 4  
Month to date heating degree days 25 32  
Since 1 June heating degree days 25 32  
Since 1 July heating degree days 1986 2580  
Cooling Degree Days 6 1  
Month to date cooling degree days 6 5  
Year to date cooling degree days 69 24  
Since 1 June cooling degree days 6 5  
Growing Degree Days 21 (Base 50)    
Moisture  
Dew Point 53 °F    
Average Humidity 58    
Maximum Humidity 86    
Minimum Humidity 29    
Precipitation  
Precipitation 0.00 in 0.00 in 0.60 in (1964)
Month to date precipitation 0.00 0.05  
Year to date precipitation 7.31 13.02  
Since 1 July precipitation 8.80  
Sea Level Pressure  
Sea Level Pressure 29.78 in    
Wind  
Wind Speed 11 mph (WNW)    
Max Wind Speed 23 mph    
Max Gust Speed 28 mph    
Visibility 10 miles    
Events      
T = Trace of Precipitation, MM = Missing Value Source: NWS Daily Summary

Daily Weather History Graph

Daily Weather History Graph

Search for Another Location

Airport or City:

Trip Planner

Search our weather history database for the weather conditions in past years. The results will help you decide how hot, cold, wet, or windy it might be!

Date:

Astronomy

Jun. 08, 2014 Rise Set
Actual Time 5:47 AM PDT 8:29 PM PDT
Civil Twilight 5:16 AM PDT 9:00 PM PDT
Nautical Twilight 4:38 AM PDT 9:39 PM PDT
Astronomical Twilight 3:54 AM PDT 10:22 PM PDT
Moon 3:58 PM PDT (6/8) 2:38 AM PDT (6/8)
Length of Visible Light 15h 43m
Length of Day
14h 41m
Waxing Gibbous, 78% of the Moon is Illuminated
Jun 8
Waxing Gibbous
Jun 12
Full
Jun 19
Last Quarter
Jun 27
New
Jul 5
First Quarter

Hourly Weather History & Observations

Time (PDT) Temp. Heat Index Dew Point Humidity Pressure Visibility Wind Dir Wind Speed Gust Speed Precip Events Conditions
12:56 AM 57.0 °F - 52.0 °F 83% 29.82 in 10.0 mi WNW 8.1 mph - N/A   Clear
1:56 AM 55.4 °F - 51.8 °F 88% 29.81 in 10.0 mi West 6.9 mph - N/A   Clear
2:56 AM 57.0 °F - 51.1 °F 81% 29.81 in 10.0 mi West 5.8 mph - N/A   Clear
3:56 AM 57.0 °F - 51.1 °F 81% 29.80 in 10.0 mi West 4.6 mph - N/A   Clear
4:56 AM 55.9 °F - 51.1 °F 84% 29.81 in 10.0 mi West 4.6 mph - N/A   Clear
5:39 AM 55.4 °F - 51.8 °F 88% 29.81 in 10.0 mi WNW 5.8 mph - N/A   Partly Cloudy
5:56 AM 55.0 °F - 51.1 °F 86% 29.81 in 9.0 mi West 5.8 mph - N/A   Partly Cloudy
6:56 AM 57.9 °F - 53.1 °F 84% 29.82 in 10.0 mi Calm Calm - N/A   Clear
7:56 AM 64.0 °F - 55.0 °F 73% 29.82 in 10.0 mi Calm Calm - N/A   Clear
8:56 AM 64.9 °F - 55.9 °F 73% 29.83 in 10.0 mi NNE 4.6 mph - N/A   Clear
10:56 AM 69.1 °F - 59.0 °F 70% 29.81 in 10.0 mi North 4.6 mph - N/A   Clear
11:56 AM 79.0 °F - 55.9 °F 45% 29.81 in 10.0 mi NW 11.5 mph - N/A   Clear
12:56 PM 81.0 °F 80.7 °F 55.0 °F 41% 29.78 in 10.0 mi WNW 17.3 mph - N/A   Clear
1:56 PM 81.0 °F 80.5 °F 54.0 °F 39% 29.78 in 10.0 mi WNW 18.4 mph - N/A   Clear
2:56 PM 84.0 °F 82.6 °F 54.0 °F 35% 29.76 in 10.0 mi WNW 20.7 mph - N/A   Clear
3:56 PM 82.0 °F 81.3 °F 54.0 °F 38% 29.75 in 10.0 mi WNW 19.6 mph 26.5 mph N/A   Clear
4:56 PM 87.1 °F - 52.0 °F 30% 29.73 in 10.0 mi West 19.6 mph - N/A   Clear
5:56 PM 79.0 °F - 53.1 °F 40% 29.72 in 10.0 mi WNW 21.9 mph - N/A   Clear
6:56 PM 79.0 °F - 54.0 °F 42% 29.71 in 10.0 mi WNW 16.1 mph 23.0 mph N/A   Partly Cloudy
7:56 PM 69.1 °F - 54.0 °F 58% 29.72 in 10.0 mi West 20.7 mph - N/A   Partly Cloudy
8:56 PM 64.0 °F - 54.0 °F 70% 29.73 in 10.0 mi WNW 17.3 mph - N/A   Partly Cloudy
9:56 PM 63.0 °F - 53.1 °F 70% 29.75 in 10.0 mi West 11.5 mph - N/A   Clear
10:56 PM 62.1 °F - 53.1 °F 72% 29.75 in 10.0 mi WNW 6.9 mph - N/A   Clear
11:56 PM 62.1 °F - 53.1 °F 72% 29.75 in 10.0 mi WNW 8.1 mph - N/A   Clear